Location: Gaast
(52.9002°N, 5.8891°E)
Time: 23:13:40
(UTC+00:00)

BlueWalker 3 - Visible Passes

Search period start: 17 January 2026 00:00
Search period end: 27 January 2026 00:00
Orbit: 451 x 463 km, 53.2° (Epoch: 17 January)

Date Brightness Start Highest point End Pass type
(mag) Time Alt. Az. Time Alt. Az. Time Alt. Az.
21 Jan 4.4 18:59:05 10° SW 18:59:46 14° SSW 18:59:46 14° SSW visible
22 Jan 3.3 18:23:54 10° SSW 18:26:04 25° S 18:26:04 25° S visible
23 Jan 3.1 17:48:46 10° SSW 17:51:42 24° SE 17:52:18 23° SE visible
23 Jan 4.6 19:25:17 10° WSW 19:26:03 16° WSW 19:26:03 16° WSW visible
24 Jan 3.4 17:13:41 10° SSW 17:16:23 20° SE 17:18:27 13° E visible
24 Jan 3.1 18:49:54 10° WSW 18:52:11 36° SW 18:52:11 36° SW visible
25 Jan 1.8 18:14:31 10° WSW 18:18:02 58° SSE 18:18:17 56° SE visible
25 Jan 5.2 19:51:54 10° W 19:52:01 11° W 19:52:01 11° W visible
26 Jan 2.1 17:39:09 10° SW 17:42:38 50° SSE 17:44:20 26° E visible
26 Jan 4.0 19:16:28 10° W 19:18:04 25° W 19:18:04 25° W visible
